$DATE,$TIME,DM0600B,DM0602B,DM0604B,DM0614B,DM0616B,DM0618B,DM0624B,DM0628B,DM0630B,DM0634B,DM0606B,DM0608B,DM0610B
11/04/94,00:00:00,70,1,45,39,36,33,67,59,130,0,9,10,6
11/04/94,00:05:00,55,0,40,36,29,26,53,59,123,0,16,18,6
11/04/94,00:10:00,62,11,42,30,26,24,49,59,121,0,14,15,6
11/04/94,00:15:00,41,0,42,42,24,22,45,61,130,0,11,11,6
11/04/94,00:20:00,62,0,31,39,22,21,41,61,130,0,9,9,6
11/04/94,00:25:00,13,0,43,43,21,19,39,61,130,0,8,9,5
11/04/94,00:30:00,39,0,55,49,20,19,39,62,138,0,10,20,5
11/04/94,00:35:00,15,0,43,50,22,20,41,62,130,0,18,17,9
11/04/94,00:40:00,67,0,40,48,22,21,43,61,130,0,15,12,14
11/04/94,00:45:00,58,0,32,27,23,21,45,61,130,0,11,10,11
11/04/94,00:50:00,8,0,31,23,27,25,51,61,131,0,9,8,9
11/04/94,00:55:00,78,0,38,26,27,25,50,59,130,0,11,14,7
11/04/94,01:00:00,45,0,47,47,26,24,48,59,130,0,17,19,7
11/04/94,01:05:00,51,0,49,31,23,21,42,59,130,0,14,14,7
11/04/94,01:10:00,63,0,60,33,21,20,40,59,130,0,11,10,6
11/04/94,01:15:00,73,0,50,50,20,18,38,59,130,0,9,10,6
11/04/94,01:20:00,59,0,50,51,19,18,36,59,130,0,8,20,6
11/04/94,01:25:00,46,6,46,43,16,15,32,61,130,0,14,17,6
11/04/94,01:30:00,78,2,52,50,14,13,29,61,130,0,17,12,6
11/04/94,01:35:00,76,0,48,43,15,14,28,61,131,0,13,10,6
11/04/94,01:40:00,27,0,60,46,13,13,25,61,130,0,10,16,9
11/04/94,01:45:00,65,0,63,32,12,12,22,61,145,0,9,21,16
11/04/94,01:50:00,15,0,49,48,12,12,24,61,130,0,10,14,12
11/04/94,01:55:00,57,3,52,47,11,11,23,61,130,0,19,11,10
11/04/94,02:00:00,43,0,55,43,11,11,22,61,130,0,17,18,8
11/04/94,02:05:00,43,28,47,56,11,10,22,61,137,0,13,19,7
11/04/94,02:10:00,45,14,42,58,11,10,21,61,130,0,11,13,7
11/04/94,02:15:00,46,15,43,34,10,10,20,61,138,0,10,11,7
11/04/94,02:20:00,67,43,57,33,10,9,20,61,142,0,16,19,7
11/04/94,02:25:00,60,2,56,55,10,10,20,61,130,0,18,18,6
11/04/94,02:30:00,28,34,51,53,9,9,18,61,130,0,13,12,6
11/04/94,02:35:00,26,0,35,52,10,9,19,62,130,0,11,10,6
11/04/94,02:40:00,51,7,57,27,10,9,18,61,130,0,13,18,18
11/04/94,02:45:00,58,8,48,41,7,7,14,61,128,0,18,19,14
11/04/94,02:50:00,51,22,30,51,8,8,16,61,128,0,14,13,11
11/04/94,02:55:00,47,8,65,51,8,8,16,61,128,0,12,10,9
11/04/94,03:00:00,57,5,55,55,8,8,17,61,128,0,10,12,8
11/04/94,03:05:00,61,28,29,33,8,8,16,61,131,0,9,21,7
11/04/94,03:10:00,55,10,31,42,8,8,16,61,128,0,8,15,7
11/04/94,03:15:00,44,32,51,52,8,8,17,61,128,0,14,11,7
11/04/94,03:20:00,54,14,45,52,10,10,20,61,128,0,19,9,6
11/04/94,03:25:00,54,19,36,33,10,10,21,61,128,0,15,16,6
11/04/94,03:30:00,46,34,23,50,10,10,19,61,128,0,12,18,6
11/04/94,03:35:00,58,13,65,36,9,9,18,61,128,0,10,13,6
11/04/94,03:40:00,73,28,46,34,8,8,16,61,128,0,9,10,6
11/04/94,03:45:00,40,28,41,45,6,6,12,61,128,0,14,15,6
11/04/94,03:50:00,28,39,48,40,8,8,18,61,140,0,18,19,7
11/04/94,03:55:00,66,27,31,37,8,8,15,61,128,0,14,13,6
11/04/94,04:00:00,36,14,45,32,10,10,20,59,128,0,12,11,6
11/04/94,04:05:00,41,38,59,30,9,9,19,59,130,0,9,9,6
11/04/94,04:10:00,65,37,27,32,9,9,18,61,130,0,8,15,6
11/04/94,04:15:00,55,46,51,52,7,7,15,60,129,0,8,17,6
11/04/94,04:20:00,37,36,50,43,7,7,15,61,129,0,8,13,6
11/04/94,04:25:00,54,17,50,42,7,7,14,59,129,0,7,11,6
11/04/94,04:30:00,61,30,52,54,5,5,11,58,129,0,7,9,6
11/04/94,04:35:00,44,22,54,37,5,6,11,59,131,0,7,8,6
11/04/94,04:40:00,46,32,50,42,6,7,14,59,131,0,7,11,6
11/04/94,04:45:00,44,21,36,45,8,8,17,59,122,0,7,19,6
11/04/94,04:50:00,62,24,36,32,12,12,24,59,122,0,7,14,6
11/04/94,04:55:00,66,33,32,45,15,14,29,59,122,0,7,11,7
11/04/94,05:00:00,54,33,46,28,18,17,35,59,130,0,7,9,6
11/04/94,05:05:00,70,29,49,30,20,19,39,59,129,0,7,8,6
11/04/94,05:10:00,51,32,40,44,30,28,56,59,129,0,7,7,6
11/04/94,05:15:00,56,27,29,40,21,19,40,59,129,0,6,6,6
11/04/94,05:20:00,38,26,34,45,25,23,46,59,131,0,6,6,6
11/04/94,05:25:00,28,12,36,43,28,26,55,59,129,0,6,6,6
11/04/94,05:30:00,47,22,29,23,32,30,60,59,129,0,6,16,6
11/04/94,05:35:00,42,22,39,25,28,26,52,64,129,0,6,14,6
11/04/94,05:40:00,49,35,36,46,16,15,30,64,129,0,6,11,6
11/04/94,05:45:00,53,19,45,49,14,13,27,64,130,0,6,9,6
11/04/94,05:50:00,36,20,29,37,13,13,26,64,130,0,6,8,6
11/04/94,05:55:00,50,33,38,48,13,13,25,64,130,0,12,12,6
11/04/94,06:00:00,49,34,38,50,12,11,23,63,130,0,17,18,7
11/04/94,06:05:00,52,39,57,42,10,10,20,63,130,0,14,13,7
11/04/94,06:10:00,45,27,30,36,9,9,18,64,130,0,11,11,6
11/04/94,06:15:00,62,31,23,41,8,8,17,64,130,0,10,9,6
11/04/94,06:20:00,38,38,39,40,8,8,16,64,130,0,9,12,6
11/04/94,06:25:00,46,5,54,46,7,7,15,64,130,0,11,21,6
11/04/94,06:30:00,24,34,40,48,6,7,13,64,138,0,18,16,6
11/04/94,06:35:00,41,20,45,47,6,6,12,64,130,0,16,11,6
11/04/94,06:40:00,43,37,33,35,5,5,11,64,130,0,13,10,6
11/04/94,06:45:00,31,34,41,58,5,5,11,64,130,0,11,13,6
11/04/94,06:50:00,34,8,54,32,5,5,10,64,130,0,9,20,6
11/04/94,06:55:00,52,24,63,42,5,5,10,64,130,0,9,14,6
11/04/94,07:00:00,43,37,49,49,5,5,10,64,130,0,15,11,16
11/04/94,07:05:00,39,28,51,51,5,5,11,64,130,0,18,9,15
11/04/94,07:10:00,60,22,38,36,5,6,11,64,130,0,15,14,11
11/04/94,07:15:00,49,31,29,56,6,6,12,64,158,0,12,21,9
11/04/94,07:20:00,56,31,62,45,5,5,11,64,130,0,11,15,8
11/04/94,07:25:00,43,34,58,46,5,5,11,64,131,0,9,11,7
11/04/94,07:30:00,56,24,31,41,6,6,12,64,130,0,16,13,7
11/04/94,07:35:00,55,23,39,36,6,6,12,64,130,0,18,21,6
11/04/94,07:40:00,39,51,36,38,6,6,12,64,130,0,15,15,6
11/04/94,07:45:00,64,36,54,48,6,6,13,64,130,0,12,11,6
11/04/94,07:50:00,68,31,62,53,5,6,11,64,130,0,10,10,6
11/04/94,07:55:00,71,20,32,29,5,5,11,64,130,0,9,19,15
11/04/94,08:00:00,45,18,31,30,6,6,12,64,130,0,8,18,14
11/04/94,08:05:00,42,31,46,43,5,6,12,64,130,0,9,13,11
11/04/94,08:10:00,40,19,49,53,6,6,12,64,130,0,16,11,9
11/04/94,08:15:00,36,34,48,58,5,6,12,64,130,0,17,9,8
11/04/94,08:20:00,43,29,49,39,6,6,12,64,130,0,14,16,8
11/04/94,08:25:00,45,26,59,52,6,6,13,64,130,0,11,20,7
11/04/94,08:30:00,52,14,46,40,6,6,12,64,138,0,10,14,7
11/04/94,08:35:00,52,30,59,54,5,6,11,64,130,0,11,11,7
11/04/94,08:40:00,43,33,33,57,5,5,11,64,130,0,20,17,17
11/04/94,08:45:00,36,29,57,45,5,6,11,64,130,0,17,19,14
11/04/94,08:50:00,39,29,38,38,5,6,12,64,121,0,13,13,11
11/04/94,08:55:00,57,17,57,37,5,6,11,64,121,0,11,10,9
11/04/94,09:00:00,53,43,31,46,5,5,11,64,130,0,10,11,8
11/04/94,09:05:00,54,39,35,45,5,5,10,64,130,0,11,21,8
11/04/94,09:10:00,41,32,45,47,6,6,13,64,130,0,18,17,7
11/04/94,09:15:00,65,20,44,46,9,9,19,64,121,0,16,12,7
11/04/94,09:20:00,35,23,60,49,11,10,21,64,121,0,12,10,7
11/04/94,09:25:00,41,21,41,44,9,9,19,64,121,0,11,8,7
11/04/94,09:30:00,38,20,39,40,9,9,19,64,121,0,9,9,7
11/04/94,09:35:00,31,28,39,28,10,10,20,64,121,0,8,19,6
11/04/94,09:40:00,57,25,37,43,11,10,21,64,121,0,8,16,7
11/04/94,09:45:00,41,45,44,47,10,10,21,64,121,0,7,12,7
11/04/94,09:50:00,37,36,41,42,11,11,22,64,144,0,7,10,7
11/04/94,09:55:00,62,45,42,41,12,12,24,64,123,0,7,8,7
11/04/94,10:00:00,46,47,32,44,12,12,24,61,123,0,7,7,7
11/04/94,10:05:00,40,28,40,46,11,11,22,61,123,0,7,13,7
11/04/94,10:10:00,36,37,49,38,10,10,20,61,131,0,7,19,7
11/04/94,10:15:00,48,26,38,44,9,9,18,61,132,0,8,14,7
11/04/94,10:20:00,37,38,53,48,7,7,14,61,132,0,10,11,6
11/04/94,10:25:00,45,44,40,45,5,5,11,61,132,0,18,9,6
11/04/94,10:30:00,42,26,36,43,4,5,9,61,132,0,17,11,6
11/04/94,10:35:00,27,24,55,48,3,4,8,61,132,0,13,22,6
11/04/94,10:40:00,59,25,34,52,3,4,7,61,132,0,11,16,6
11/04/94,10:45:00,52,29,50,45,2,3,5,61,132,0,10,12,8
11/04/94,10:50:00,52,29,36,56,2,2,5,61,132,0,14,12,18
11/04/94,10:55:00,43,30,40,40,1,2,4,61,132,0,19,21,13
11/04/94,11:00:00,61,27,48,46,1,2,4,61,132,0,15,16,10
11/04/94,11:05:00,54,24,47,40,1,2,4,61,132,0,12,12,9
11/04/94,11:10:00,56,29,51,48,1,2,5,59,132,0,10,12,8
11/04/94,11:15:00,49,25,51,50,2,3,5,59,134,0,12,22,7
11/04/94,11:20:00,44,25,54,48,2,3,6,59,134,0,20,18,7
11/04/94,11:25:00,43,28,43,50,2,3,5,59,132,0,17,13,7
11/04/94,11:30:00,52,25,40,51,1,2,4,62,136,0,14,11,12
11/04/94,11:35:00,57,16,24,46,1,2,4,61,125,0,11,21,17
11/04/94,11:40:00,40,27,59,42,0,1,2,61,125,0,9,17,12
11/04/94,11:45:00,48,18,42,38,1,2,3,61,125,0,10,12,10
11/04/94,11:50:00,49,26,39,36,1,2,3,61,125,0,19,10,8
11/04/94,11:55:00,51,19,49,40,1,2,3,61,125,0,18,20,8
11/04/94,12:00:00,54,26,54,46,1,1,3,61,134,0,14,18,7
11/04/94,12:05:00,50,31,64,47,1,1,3,62,125,0,11,13,6
11/04/94,12:10:00,57,20,33,36,0,1,3,61,125,0,13,14,17
11/04/94,12:15:00,34,39,39,49,0,1,2,61,125,0,19,21,15
11/04/94,12:20:00,64,13,46,45,0,1,2,61,125,0,16,15,11
11/04/94,12:25:00,21,10,44,43,0,1,2,62,125,0,12,11,9
11/04/94,12:30:00,50,12,48,49,0,1,2,61,127,0,11,18,8
11/04/94,12:35:00,45,33,37,41,0,1,3,61,127,0,20,22,18
11/04/94,12:40:00,57,19,51,29,1,2,3,61,127,0,17,14,14
11/04/94,12:45:00,52,19,41,41,1,2,3,61,127,0,14,11,11
11/04/94,12:50:00,47,27,45,37,1,2,3,61,141,0,11,15,9
11/04/94,12:55:00,57,25,37,48,1,2,4,61,127,0,10,23,8
11/04/94,13:00:00,53,27,37,49,1,2,4,61,127,0,17,16,7
11/04/94,13:05:00,32,25,39,53,1,2,4,61,123,0,19,12,7
11/04/94,13:10:00,34,35,60,42,1,2,3,61,123,0,15,10,7
11/04/94,13:15:00,48,28,29,53,1,1,3,61,123,0,12,18,7
11/04/94,13:20:00,45,21,41,39,0,1,3,61,123,0,10,20,6
11/04/94,13:25:00,45,32,54,52,0,1,2,61,127,0,11,14,8
11/04/94,13:30:00,39,24,44,38,0,1,3,61,127,0,19,11,18
11/04/94,13:35:00,43,33,58,56,0,1,2,61,125,0,17,13,13
11/04/94,13:40:00,57,16,61,49,0,1,2,61,125,0,13,22,10
11/04/94,13:45:00,49,33,43,49,0,1,3,61,125,0,11,16,9
11/04/94,13:50:00,41,25,55,49,1,1,3,61,136,0,12,12,8
11/04/94,13:55:00,34,13,42,51,1,2,4,62,136,0,21,19,15
11/04/94,14:00:00,68,16,28,43,1,2,4,61,136,0,18,20,16
11/04/94,14:05:00,51,25,52,57,2,2,5,62,136,0,14,14,12
11/04/94,14:10:00,47,16,49,41,2,2,5,62,146,0,13,15,10
11/04/94,14:15:00,66,23,53,35,2,2,5,62,136,0,21,24,19
11/04/94,14:20:00,48,9,50,35,2,3,5,62,136,0,18,17,15
11/04/94,14:25:00,42,30,34,52,2,2,5,62,127,0,14,13,11
11/04/94,14:30:00,58,17,44,43,2,2,5,61,128,0,11,16,10
11/04/94,14:35:00,50,22,37,56,2,3,6,61,127,0,17,23,8
11/04/94,14:40:00,37,10,43,38,2,3,5,61,127,0,18,16,8
11/04/94,14:45:00,50,28,45,44,3,4,8,61,127,0,14,12,7
11/04/94,14:50:00,39,15,42,44,3,3,7,61,127,0,11,15,7
11/04/94,14:55:00,38,29,43,44,2,3,6,61,127,0,9,21,7
11/04/94,15:00:00,51,19,43,48,2,3,6,61,127,0,14,15,7
11/04/94,15:05:00,49,17,54,44,4,5,9,61,143,0,19,11,7
11/04/94,15:10:00,51,35,44,43,4,4,9,61,125,0,15,9,7
11/04/94,15:15:00,40,29,35,46,4,5,10,61,125,0,12,10,6
11/04/94,15:20:00,46,32,50,51,8,8,14,61,124,0,10,21,7
11/04/94,15:25:00,51,22,41,39,13,12,25,61,124,0,9,16,7
11/04/94,15:30:00,47,37,50,45,8,8,17,61,130,0,8,12,7
11/04/94,15:35:00,28,48,48,45,12,12,23,61,126,0,7,10,7
11/04/94,15:40:00,43,19,47,53,8,8,16,61,126,0,7,8,7
11/04/94,15:45:00,33,26,48,50,8,8,17,61,126,0,9,11,7
11/04/94,15:50:00,43,30,38,44,11,10,21,61,126,0,17,20,7
11/04/94,15:55:00,52,20,39,43,11,10,21,61,126,0,15,15,7
11/04/94,16:00:00,46,27,39,42,11,10,21,61,150,0,12,11,6
11/04/94,16:05:00,49,28,34,46,13,12,25,61,126,0,10,10,7
11/04/94,16:10:00,50,46,36,42,12,11,24,61,126,0,9,8,7
11/04/94,16:15:00,50,22,48,42,12,11,23,61,126,0,8,7,6
11/04/94,16:20:00,53,20,53,40,19,17,34,61,126,0,8,15,7
11/04/94,16:25:00,52,17,43,44,14,14,27,61,126,0,7,17,6
11/04/94,16:30:00,47,15,42,46,12,12,24,61,126,0,7,12,7
11/04/94,16:35:00,64,35,42,41,9,9,18,61,145,0,8,10,7
11/04/94,16:40:00,45,30,43,38,9,9,17,61,127,0,17,12,6
11/04/94,16:45:00,69,30,40,49,7,7,15,61,126,0,17,20,6
11/04/94,16:50:00,41,16,54,47,8,8,16,61,125,0,14,15,6
11/04/94,16:55:00,68,15,48,39,8,8,16,61,127,0,11,11,10
11/04/94,17:00:00,59,6,39,42,7,7,14,61,127,0,9,16,17
11/04/94,17:05:00,45,11,35,52,6,6,13,61,127,0,11,20,12
11/04/94,17:10:00,54,12,48,41,6,7,13,61,127,0,19,14,9
11/04/94,17:15:00,54,31,46,57,7,7,14,61,127,0,17,11,8
11/04/94,17:20:00,53,0,47,61,9,9,17,61,127,0,13,10,8
11/04/94,17:25:00,45,0,23,40,8,8,16,61,127,0,10,20,7
11/04/94,17:30:00,56,22,40,54,8,8,15,61,131,0,13,19,13
11/04/94,17:35:00,57,12,30,48,10,10,21,61,127,0,19,13,15
11/04/94,17:40:00,40,4,42,49,10,9,19,61,127,0,15,10,11
11/04/94,17:45:00,69,2,46,41,10,9,19,61,127,0,12,16,9
11/04/94,17:50:00,63,11,38,24,10,10,20,61,127,0,10,21,8
11/04/94,17:55:00,66,15,50,41,10,10,21,62,118,0,9,14,7
11/04/94,18:00:00,37,30,46,43,10,10,21,62,118,0,11,11,7
11/04/94,18:05:00,63,21,40,50,18,17,32,61,128,0,18,9,6
11/04/94,18:10:00,36,26,47,42,22,20,41,61,126,0,15,8,6
11/04/94,18:15:00,41,23,44,39,19,17,35,61,126,0,12,7,6
11/04/94,18:20:00,37,48,52,39,20,19,39,61,124,0,10,7,6
11/04/94,18:25:00,49,36,22,40,22,20,42,61,124,0,8,6,6
11/04/94,18:30:00,49,37,47,41,34,31,64,60,124,0,7,6,6
11/04/94,18:35:00,55,29,30,33,38,35,71,60,124,0,7,6,6
11/04/94,18:40:00,45,21,23,33,41,37,74,61,132,0,7,6,7
11/04/94,18:45:00,33,21,35,29,43,39,78,60,132,0,6,6,7
11/04/94,18:50:00,36,36,35,36,46,41,84,60,139,0,6,6,6
11/04/94,18:55:00,37,28,29,28,41,37,79,60,123,0,6,6,6
11/04/94,19:00:00,45,13,37,30,44,40,78,60,123,0,6,6,6
11/04/94,19:05:00,53,16,31,36,31,28,56,60,123,0,5,6,6
11/04/94,19:10:00,47,14,30,26,28,26,52,60,128,0,6,5,6
11/04/94,19:15:00,39,12,37,34,34,32,65,60,124,0,6,5,6
11/04/94,19:20:00,37,4,32,37,26,24,42,61,124,0,6,5,6
11/04/94,19:25:00,38,0,40,39,27,25,55,61,124,0,7,5,6
11/04/94,19:30:00,45,0,44,39,24,23,47,61,124,0,6,11,6
11/04/94,19:35:00,61,0,48,37,13,13,22,61,145,0,6,19,6
11/04/94,19:40:00,50,0,39,40,27,26,52,61,125,0,11,14,6
11/04/94,19:45:00,46,1,37,31,22,20,46,61,124,0,15,11,7
11/04/94,19:50:00,49,8,36,34,34,31,63,61,124,0,12,9,6
11/04/94,19:55:00,55,1,47,37,12,12,35,61,125,0,10,8,6
11/04/94,20:00:00,41,3,67,25,25,24,48,61,125,0,8,12,6
11/04/94,20:05:00,47,16,43,39,39,35,69,61,124,0,7,18,6
11/04/94,20:10:00,53,2,38,42,29,37,75,61,124,0,7,13,6
11/04/94,20:15:00,54,8,40,45,36,33,82,61,124,0,6,10,6
11/04/94,20:20:00,43,21,37,34,39,35,71,61,139,0,6,9,6
11/04/94,20:25:00,47,26,33,34,35,32,66,61,124,0,6,7,6
11/04/94,20:30:00,46,0,35,44,34,31,63,61,124,0,6,7,6
11/04/94,20:35:00,65,11,37,27,35,31,64,61,124,0,6,6,6
11/04/94,20:40:00,64,13,42,36,29,27,56,59,124,0,6,6,6
11/04/94,20:45:00,50,3,38,38,30,28,57,59,124,0,6,6,6
11/04/94,20:50:00,58,24,22,34,29,26,53,59,124,0,6,5,6
11/04/94,20:55:00,56,2,41,42,26,24,49,59,124,0,5,5,6
11/04/94,21:00:00,43,7,41,52,25,23,47,59,124,0,6,7,6
11/04/94,21:05:00,54,11,41,40,24,22,45,59,148,0,6,17,6
11/04/94,21:10:00,56,4,52,41,28,26,55,61,133,0,5,14,6
11/04/94,21:15:00,30,0,51,37,26,24,49,61,124,0,5,11,5
11/04/94,21:20:00,51,1,51,36,38,34,71,61,124,0,5,9,6
11/04/94,21:25:00,44,5,45,27,39,35,71,64,124,0,5,8,6
11/04/94,21:30:00,22,0,54,48,26,24,50,64,124,0,5,7,6
11/04/94,21:35:00,64,0,26,31,32,28,57,64,124,0,5,6,6
11/04/94,21:40:00,70,0,50,30,47,42,82,64,124,0,5,8,6
11/04/94,21:45:00,46,0,45,32,51,45,100,63,124,0,5,15,5
11/04/94,21:50:00,64,0,47,26,65,58,112,61,140,0,5,12,5
11/04/94,21:55:00,55,0,37,31,44,39,76,61,123,0,5,10,6
11/04/94,22:00:00,61,0,47,31,28,26,53,62,124,0,5,8,6
11/04/94,22:05:00,40,0,35,44,31,28,57,62,124,0,5,7,6
11/04/94,22:10:00,45,0,53,39,34,31,62,62,124,0,4,6,6
11/04/94,22:15:00,32,0,47,51,28,26,52,62,124,0,5,6,6
11/04/94,22:20:00,59,3,51,39,30,27,56,62,133,0,6,10,6
11/04/94,22:25:00,37,0,41,38,30,27,56,62,133,0,14,18,6
11/04/94,22:30:00,64,2,31,43,30,27,50,62,133,0,13,13,6
11/04/94,22:35:00,24,0,44,39,36,34,65,62,151,0,10,10,6
11/04/94,22:40:00,50,0,41,36,36,32,69,62,133,0,8,9,6
11/04/94,22:45:00,66,1,39,38,34,31,63,62,133,0,7,8,6
11/04/94,22:50:00,46,0,38,39,35,32,65,64,133,0,6,7,6
11/04/94,22:55:00,71,13,32,40,43,39,77,64,133,0,5,6,6
11/04/94,23:00:00,50,0,49,38,41,37,76,64,133,0,5,6,7
11/04/94,23:05:00,62,3,54,38,43,41,83,64,133,0,4,6,6
11/04/94,23:10:00,65,13,40,43,33,30,63,64,133,0,5,5,6
11/04/94,23:15:00,28,3,30,44,35,32,66,62,133,0,4,5,6
11/04/94,23:20:00,54,19,45,44,22,21,42,62,134,0,4,6,6
11/04/94,23:25:00,78,24,45,40,17,16,34,62,134,0,6,8,6
11/04/94,23:30:00,57,18,44,41,13,12,26,62,133,0,15,18,6
11/04/94,23:35:00,45,19,44,28,12,11,23,62,134,0,14,16,6
11/04/94,23:40:00,40,37,48,42,12,12,25,64,134,0,12,11,6
11/04/94,23:45:00,48,48,61,55,14,14,28,64,134,0,9,9,6
11/04/94,23:50:00,44,37,35,43,17,16,34,64,130,0,8,8,6
11/04/94,23:55:00,46,23,48,36,17,16,32,64,129,0,7,7,6
11/05/94,00:00:00,43,43,41,49,17,16,33,64,129,0,6,7,6
